Regional Weather Roundup
Issued by NWS

Home | Current Version | Previous Version | Graphics & Text | Print | Product List | Glossary On
Versions: 1 2 3 4 5 6 7 8 9 10 11 12 13 14 15 16 17 18 19 20 21 22 23 24 25 26 27 28 29 30 31 32 33 34 35 36 37 38 39 40 41 42 43 44 45 46 47 48 49 50
000
ASUS43 KLMK 281810
RWRKY
KENTUCKY REGIONAL WEATHER ROUNDUP
NATIONAL WEATHER SERVICE LOUISVILLE KY
100 PM EST SUN DEC 28 2014

NOTE "FAIR" INDICATES FEW OR NO CLOUDS BELOW 12,000 FEET
WITH NO SIGNIFICANT WEATHER AND/OR OBSTRUCTIONS TO VISIBILITY.

KYZ001>023-026-027-061>063-070>075-281900-
WESTERN AND SOUTH CENTRAL KENTUCKY

CITY           SKY/WX    TMP DP  RH WIND       PRES   REMARKS
PADUCAH        CLOUDY    36  30  79 NE5       30.20F WCI  32
HENDERSON      CLOUDY    34  28  80 NW9       30.20F WCI  26
OWENSBORO      CLOUDY    36  31  82 N5        30.19F WCI  32
HOPKINSVILLE   CLOUDY    37  34  87 N5        30.16F WCI  34
BOWLING GREEN  CLOUDY    39  35  86 NW5       30.15F
GLASGOW        CLOUDY    39  38  99 NW5       30.13F
$$

KYZ024-025-028>034-038-045-046-053-281900-
NORTH CENTRAL KENTUCKY

CITY           SKY/WX    TMP DP  RH WIND       PRES   REMARKS
LOUISVILLE/SDF CLOUDY    37  32  82 N8        30.16F WCI  31
LOUISVILLE/LOU CLOUDY    36  32  85 N7        30.17F WCI  30
FORT KNOX      CLOUDY    36  34  94 N5        30.13F FOG     WCI  32
$$

KYZ035>037-039>044-047>052-055>060-089>105-281900-
NORTHEAST KENTUCKY

CITY           SKY/WX    TMP DP  RH WIND       PRES   REMARKS
LEXINGTON      CLOUDY    37  36  96 NW7       30.12F FOG     WCI  32
COVINGTON      CLOUDY    36  27  69 NW6       30.13F WCI  31
FRANKFORT      CLOUDY    36  34  92 N8        30.14R WCI  30
$$

KYZ054-064>069-076>088-106>120-281900-
SOUTHEAST KENTUCKY

CITY           SKY/WX    TMP DP  RH WIND       PRES   REMARKS
JACKSON        CLOUDY    42  40  92 VRB3      30.06F
LONDON         LGT RAIN  45  39  79 NW7       30.10S
SOMERSET       DRIZZLE   41  41 100 NW5       30.15R
MIDDLESBORO    DRIZZLE   49  48  97 CALM      30.08S
MONTICELLO     LGT RAIN  43  42  96 NW8       30.16R
$$




USA.gov is the U.S. government's official web portal to all federal, state and local government web resources and services.